Hourly Weather Lukasze

Today, 17 May, Monday

Time Temperature Precipitation Wind Pressure Humidity
00:00 +7°C° 0 mm 2 mps 712 mmHg 92%
01:00 +7°C° 0 mm 1 mps 712 mmHg 93%
02:00 +7°C° 0 mm 1 mps 712 mmHg 92%
03:00 +7°C° 0 mm 1 mps 711 mmHg 92%
04:00 +7°C° 0 mm 1 mps 711 mmHg 92%
05:00 +9°C° 0 mm 1 mps 711 mmHg 86%
06:00 +11°C° 0 mm 1 mps 711 mmHg 81%
07:00 +13°C° 0 mm 1 mps 711 mmHg 75%
08:00 +13°C° 0.2 mm 2 mps 711 mmHg 74%
09:00 +14°C° 0.2 mm 2 mps 711 mmHg 74%
10:00 +14°C° 0.2 mm 2 mps 711 mmHg 73%
11:00 +15°C° 0.1 mm 2 mps 711 mmHg 72%
12:00 +15°C° 0.1 mm 1 mps 711 mmHg 72%
13:00 +15°C° 0.1 mm 1 mps 710 mmHg 71%
14:00 +15°C° 0.4 mm 2 mps 710 mmHg 76%
15:00 +14°C° 0.4 mm 2 mps 710 mmHg 82%
16:00 +14°C° 0.4 mm 2 mps 710 mmHg 87%
17:00 +13°C° 1.9 mm 2 mps 710 mmHg 90%
18:00 +10°C° 1.9 mm 2 mps 710 mmHg 94%
19:00 +9°C° 1.9 mm 2 mps 710 mmHg 97%
20:00 +10°C° 1.6 mm 1 mps 710 mmHg 98%
21:00 +10°C° 1.6 mm 1 mps 711 mmHg 98%
22:00 +10°C° 1.6 mm 1 mps 711 mmHg 98%
23:00 +10°C° 2.3 mm 1 mps 711 mmHg 98%

Tomorrow, 18 May, Tuesday

Time Temperature Precipitation Wind Pressure Humidity
00:00 +9°C° 2.3 mm 2 mps 711 mmHg 98%
01:00 +8°C° 2.3 mm 2 mps 711 mmHg 97%
02:00 +8°C° 2.4 mm 3 mps 711 mmHg 97%
03:00 +8°C° 2.4 mm 3 mps 711 mmHg 97%
04:00 +7°C° 2.4 mm 4 mps 712 mmHg 97%
05:00 +7°C° 1.2 mm 4 mps 712 mmHg 97%
06:00 +7°C° 1.2 mm 4 mps 712 mmHg 96%
07:00 +7°C° 1.2 mm 5 mps 713 mmHg 96%
08:00 +7°C° 0.4 mm 5 mps 713 mmHg 94%
09:00 +8°C° 0.4 mm 5 mps 714 mmHg 93%
10:00 +8°C° 0.4 mm 4 mps 714 mmHg 92%
11:00 +10°C° 0.3 mm 4 mps 714 mmHg 89%
12:00 +10°C° 0.3 mm 5 mps 714 mmHg 87%
13:00 +10°C° 0.3 mm 5 mps 714 mmHg 84%
14:00 +11°C° 0.3 mm 4 mps 714 mmHg 83%
15:00 +12°C° 0.3 mm 4 mps 714 mmHg 82%
16:00 +12°C° 0.3 mm 4 mps 714 mmHg 81%
17:00 +11°C° 0.1 mm 3 mps 715 mmHg 83%
18:00 +10°C° 0.1 mm 3 mps 715 mmHg 86%
19:00 +9°C° 0.1 mm 2 mps 715 mmHg 88%
20:00 +8°C° 0 mm 2 mps 715 mmHg 90%
21:00 +8°C° 0 mm 2 mps 715 mmHg 92%
22:00 +7°C° 0 mm 2 mps 715 mmHg 93%
23:00 +7°C° 0 mm 2 mps 716 mmHg 93%

Day after tomorrow, 19 May, Wednesday

Time Temperature Precipitation Wind Pressure Humidity
00:00 +6°C° 0 mm 2 mps 716 mmHg 93%
01:00 +6°C° 0 mm 2 mps 716 mmHg 93%
02:00 +6°C° 0 mm 2 mps 716 mmHg 94%
03:00 +6°C° 0 mm 2 mps 716 mmHg 95%
04:00 +5°C° 0 mm 2 mps 716 mmHg 95%
05:00 +7°C° 0 mm 2 mps 716 mmHg 91%
06:00 +8°C° 0 mm 2 mps 717 mmHg 87%
07:00 +10°C° 0 mm 3 mps 717 mmHg 83%
08:00 +10°C° 0.1 mm 3 mps 717 mmHg 78%
09:00 +11°C° 0.1 mm 3 mps 717 mmHg 74%
10:00 +12°C° 0.1 mm 4 mps 717 mmHg 70%
11:00 +12°C° 0.1 mm 4 mps 717 mmHg 69%
12:00 +12°C° 0.1 mm 4 mps 717 mmHg 69%
13:00 +12°C° 0.1 mm 4 mps 717 mmHg 68%
14:00 +12°C° 0.5 mm 3 mps 717 mmHg 74%
15:00 +11°C° 0.5 mm 3 mps 717 mmHg 79%
16:00 +10°C° 0.5 mm 3 mps 717 mmHg 85%
17:00 +10°C° 0.7 mm 2 mps 717 mmHg 88%
18:00 +9°C° 0.7 mm 2 mps 717 mmHg 90%
19:00 +8°C° 0.7 mm 2 mps 717 mmHg 93%
20:00 +8°C° 0.5 mm 2 mps 717 mmHg 94%
21:00 +8°C° 0.5 mm 2 mps 717 mmHg 95%
22:00 +7°C° 0.5 mm 2 mps 717 mmHg 96%
23:00 +7°C° 0.8 mm 2 mps 717 mmHg 96%

20 May, Thursday

Time Temperature Precipitation Wind Pressure Humidity
00:00 +7°C° 0.8 mm 2 mps 717 mmHg 97%
01:00 +7°C° 0.8 mm 2 mps 717 mmHg 98%
02:00 +7°C° 1.1 mm 2 mps 717 mmHg 98%
03:00 +7°C° 1.1 mm 3 mps 717 mmHg 98%
04:00 +7°C° 1.1 mm 3 mps 717 mmHg 98%
05:00 +7°C° 0.7 mm 3 mps 717 mmHg 98%
06:00 +7°C° 0.7 mm 3 mps 717 mmHg 98%
07:00 +7°C° 0.7 mm 3 mps 717 mmHg 98%
08:00 +7°C° 1.1 mm 3 mps 718 mmHg 97%
09:00 +7°C° 1.1 mm 3 mps 718 mmHg 96%
10:00 +8°C° 1.1 mm 3 mps 718 mmHg 95%
11:00 +8°C° 0.3 mm 3 mps 718 mmHg 91%
12:00 +9°C° 0.3 mm 3 mps 718 mmHg 86%
13:00 +10°C° 0.3 mm 4 mps 719 mmHg 81%
14:00 +10°C° 0.2 mm 4 mps 719 mmHg 79%
15:00 +11°C° 0.2 mm 4 mps 719 mmHg 76%
16:00 +11°C° 0.2 mm 3 mps 718 mmHg 74%
17:00 +10°C° 0.2 mm 3 mps 719 mmHg 78%
18:00 +9°C° 0.2 mm 3 mps 719 mmHg 83%
19:00 +9°C° 0.2 mm 3 mps 719 mmHg 88%
20:00 +8°C° 0.2 mm 3 mps 719 mmHg 90%
21:00 +7°C° 0.2 mm 2 mps 720 mmHg 93%
22:00 +6°C° 0.2 mm 2 mps 720 mmHg 95%
23:00 +6°C° 0.2 mm 2 mps 720 mmHg 96%

21 May, Friday

Time Temperature Precipitation Wind Pressure Humidity
00:00 +6°C° 0.2 mm 2 mps 721 mmHg 96%
01:00 +6°C° 0.2 mm 2 mps 721 mmHg 97%
02:00 +6°C° 0.1 mm 2 mps 721 mmHg 96%
03:00 +6°C° 0.1 mm 2 mps 721 mmHg 96%
04:00 +6°C° 0.1 mm 2 mps 722 mmHg 96%
05:00 +5°C° 0.1 mm 3 mps 722 mmHg 92%
06:00 +7°C° 0.1 mm 3 mps 722 mmHg 87%
07:00 +8°C° 0.1 mm 3 mps 722 mmHg 83%
08:00 +8°C° 0.1 mm 4 mps 722 mmHg 75%
09:00 +10°C° 0.1 mm 4 mps 722 mmHg 67%
10:00 +11°C° 0.1 mm 4 mps 722 mmHg 58%
11:00 +11°C° 0 mm 4 mps 722 mmHg 56%
12:00 +12°C° 0 mm 4 mps 721 mmHg 54%
13:00 +13°C° 0 mm 3 mps 721 mmHg 52%
14:00 +13°C° 0 mm 3 mps 721 mmHg 53%
15:00 +13°C° 0 mm 3 mps 721 mmHg 54%
16:00 +13°C° 0 mm 3 mps 720 mmHg 54%
17:00 +12°C° 0 mm 2 mps 720 mmHg 63%
18:00 +11°C° 0 mm 1 mps 720 mmHg 71%
19:00 +9°C° 0 mm 1 mps 720 mmHg 79%
20:00 +9°C° 0 mm 1 mps 720 mmHg 81%
21:00 +8°C° 0 mm 1 mps 720 mmHg 83%
22:00 +7°C° 0 mm 1 mps 720 mmHg 85%
23:00 +7°C° 0 mm 1 mps 719 mmHg 83%

22 May, Saturday

Time Temperature Precipitation Wind Pressure Humidity
00:00 +6°C° 0 mm 2 mps 719 mmHg 82%
01:00 +6°C° 0 mm 2 mps 718 mmHg 81%
02:00 +6°C° 0 mm 2 mps 718 mmHg 81%
03:00 +6°C° 0 mm 2 mps 718 mmHg 81%
04:00 +6°C° 0 mm 2 mps 718 mmHg 81%
05:00 +8°C° 0 mm 2 mps 718 mmHg 75%
06:00 +10°C° 0 mm 2 mps 718 mmHg 70%
07:00 +13°C° 0 mm 2 mps 718 mmHg 64%
08:00 +14°C° 0 mm 2 mps 718 mmHg 58%
09:00 +16°C° 0 mm 2 mps 718 mmHg 52%
10:00 +18°C° 0 mm 2 mps 718 mmHg 46%
11:00 +19°C° 0 mm 2 mps 718 mmHg 46%
12:00 +20°C° 0 mm 2 mps 717 mmHg 45%
13:00 +20°C° 0 mm 2 mps 717 mmHg 44%
14:00 +20°C° 0.1 mm 1 mps 717 mmHg 54%
15:00 +18°C° 0.1 mm 1 mps 717 mmHg 64%
16:00 +16°C° 0.1 mm 1 mps 717 mmHg 74%
17:00 +15°C° 0.1 mm 1 mps 716 mmHg 77%
18:00 +14°C° 0.1 mm 1 mps 716 mmHg 80%
19:00 +13°C° 0.1 mm 1 mps 716 mmHg 84%
20:00 +12°C° 0.1 mm 1 mps 716 mmHg 86%
21:00 +12°C° 0.1 mm 1 mps 716 mmHg 87%
22:00 +10°C° 0.1 mm 0 mps 716 mmHg 89%
23:00 +11°C° 1.4 mm 1 mps 716 mmHg 92%
Show more

We Need Your Consent

Meteoprog and our Service Providers may store and access personal data such as cookies, device identifiers or other similar technologies on your device and process such data to personalise content and ads, as well as provide social media features and to analyse the traffic.

  • Store and/or access information on your device

    Cookies, device identifiers or other information can be stored or accessed on your device for the purposes indicated above.

  • Personalised ads and content, ad and content measurement, audience insights, and products development

    Ads and content can be personalised based on a profile. More data can be added to better personalise ads and content. Ad and content performance can be measured. Insights about the audience who saw the ads and content can be derived. Such data can be used to develop or improve user’s experience, systems and software.

By clicking ‘I Agree’ you will allow the use of indicated cookies, device identifiers, web beacons or other similar technologies. Your settings can be changed in the browser on your device.

For certain purposes, legitimate interests may be relied on, rather than consent. You can read more about this in our Privacy and Cookie Policy.